Location: Erdweis
(48.5167°N, 15.3500°E)
Time: 07:01:51
(UTC+00:00)

Meteor 2-9 Rocket - Pass Details

Date: 18 September 2020
Orbit: 791 x 896 km, 81.3° (Epoch: 23 October)

Event Time Altitude Azimuth Distance (km) Brightness Sun altitude
Rises 17:50:44 0° 186° (S) 3,498 7.3 -8.5°
Reaches altitude 10° 17:53:11 10° 185° (S) 2,561 6.6 -8.9°
Maximum altitude 17:59:02 81° 100° (E) 906 4.3 -9.8°
Drops below altitude 10° 18:04:51 10° 13° (NNE) 2,543 6.7 -10.7°
Sets 18:07:17 0° 13° (NNE) 3,472 7.4 -11.1°
